Simultaneous Nadir Overpasses (SNOs) Predictions

Prediction of SNOs between GOES-15 and TERRA Satellite Orbit:

Table of predicted SNOs for the next 14.0 days since TLE Epoch: 5/18/2013
Index Date Time (GOES-15) GOES-15 Lat,Lon TERRA Lat,Lon Distance(km) Time Diff (sec)
1 05/18/2013 07:42:58 0.08,-135.40 -0.41,-137.82 275.20 80
2 05/20/2013 07:28:10 0.09,-135.38 0.17,-134.87 57.35 80
3 05/22/2013 07:16:06 0.09,-135.36 0.80,-131.95 387.57 80
4 05/22/2013 19:40:04 -0.08,-135.37 0.28,-137.12 197.97 80
5 05/24/2013 19:25:24 -0.08,-135.34 -0.34,-134.21 129.31 80
6 05/25/2013 07:49:31 0.07,-135.31 -0.82,-139.40 465.73 80
7 05/26/2013 19:13:27 -0.09,-135.30 -0.95,-131.31 454.12 80
8 05/27/2013 07:37:35 0.08,-135.27 -0.20,-136.51 141.52 80
9 05/29/2013 07:23:02 0.09,-135.22 0.40,-133.63 180.74 80
10 05/29/2013 19:47:02 -0.08,-135.22 0.68,-138.81 407.20 80
11 05/31/2013 19:35:13 -0.08,-135.18 0.09,-135.94 86.97 80




NCC Satellite Simultaneous Nadir Overpasses (SNOs) Prediction Service
